CAPE
0 0 0 0 0 0 0 0 0 0 0 0 0 0 0 0 0 0 0 0 0 0 0 683 901 903 1021 665 506 261 32 13 0 0 0 0 0 0 0 0 0 0 0 0
0 0 0 0 0 0 0 1 0 0 0 0 0 0 0 0 0 0 0 0 0 0 0 189 663 802 775 624 418 184 18 2 0 0 1 0 0 0 0 0 0 0 0 0
0 0 0 0 1 0 0 0 0 0 0 0 2 2 0 0 0 0 0 0 0 0 0 0 395 742 739 534 325 88 15 1 2 2 5 2 0 0 0 0 0 0 0 0
0 0 0 0 0 0 2 0 2 29 13 1 0 0 0 0 0 0 0 0 0 0 0 0 9 480 770 582 374 121 12 11 1 1 2 0 0 0 0 0 0 0 0 0
0 0 0 0 0 0 0 0 0 0 3 5 0 1 0 0 0 0 0 0 0 0 0 0 66 466 739 752 471 120 28 5 1 0 0 0 0 0 0 0 0 0 0 0
0 0 0 0 0 0 0 0 1 9 14 0 0 0 0 0 1 0 0 0 0 0 0 0 29 247 505 731 570 187 35 1 1 0 0 0 0 0 0 0 0 0 0 0
0 0 0 0 0 0 0 0 0 0 0 0 0 0 0 0 0 0 0 0 0 0 0 0 0 167 309 599 662 271 79 2 0 0 0 0 0 0 0 0 0 0 0 0
0 0 0 0 0 4 0 10 8 1 0 0 0 0 0 0 0 0 0 0 0 2 0 0 0 47 97 259 609 383 167 13 0 0 0 0 0 0 0 0 0 0 0 0
1 0 0 0 0 0 0 4 0 9 0 0 0 0 7 0 0 0 0 0 0 4 3 0 0 0 48 159 120 297 176 55 0 0 0 0 0 0 0 0 0 0 0 0
0 0 0 0 0 0 2 0 2 0 0 0 0 0 6 2 2 0 0 0 0 0 0 0 0 0 19 161 327 314 270 85 2 0 0 0 0 0 0 0 0 0 0 0
0 0 0 0 0 0 7 0 4 6 4 0 0 2 7 2 6 4 0 0 0 0 0 0 0 0 1 187 272 313 252 56 2 0 0 0 0 0 0 0 0 0 0 0
0 0 0 0 0 0 0 0 0 1 0 1 8 0 0 1 2 9 0 0 0 0 0 0 0 0 9 210 218 165 140 31 0 0 0 0 0 0 0 0 0 0 0 0
6 0 0 0 0 0 0 0 0 0 2 0 0 0 0 0 0 0 4 4 1 0 0 0 0 0 25 149 140 183 127 37 0 0 0 0 0 0 0 0 0 0 0 0
0 0 0 0 0 1 0 0 0 0 0 0 0 0 0 0 0 0 5 4 6 2 1 0 0 0 7 171 201 219 156 13 0 0 0 0 0 0 0 0 0 0 0 0
0 0 0 0 0 0 0 0 0 0 0 0 0 0 0 0 0 1 7 5 5 2 1 3 1 1 0 2 131 202 181 17 0 0 0 0 0 0 0 0 0 0 0 0
0 0 0 0 0 0 0 0 0 2 0 0 0 0 0 0 0 0 2 5 2 3 2 2 2 1 1 0 0 104 103 22 0 0 0 0 0 0 0 0 0 0 0 0
0 0 0 0 0 0 0 0 0 0 0 0 0 0 0 0 0 0 2 2 4 3 3 2 2 3 2 1 0 0 26 2 1 0 0 0 0 0 0 0 0 0 0 0
0 0 0 0 0 0 0 0 0 0 0 0 0 0 0 0 0 0 3 3 2 3 2 1 2 2 4 1 0 0 12 13 1 1 0 0 0 0 0 0 0 0 0 0
0 0 0 0 0 0 0 0 0 0 0 0 0 0 0 1 1 1 5 6 3 2 1 2 1 1 2 2 1 0 3 5 0 0 0 0 0 0 0 0 0 0 0 0
0 0 0 0 0 0 0 0 0 0 0 0 1 0 0 1 0 0 7 8 3 1 1 1 0 1 1 2 0 1 4 2 0 0 0 0 0 0 0 0 0 0 0 0
0 0 0 0 0 0 0 0 0 0 0 1 1 0 1 1 3 8 5 3 2 2 1 1 0 2 1 1 0 1 0 0 0 0 0 0 0 0 0 0 0 0 0 0
0 0 0 0 0 0 0 0 0 1 0 0 0 0 6 3 3 4 2 3 2 2 0 0 0 1 1 1 0 0 0 0 0 0 0 0 0 0 0 0 0 0 0 0
0 0 0 0 0 0 0 0 0 0 0 0 0 0 4 3 3 3 2 3 1 2 1 1 1 1 0 1 1 0 0 0 1 0 0 0 0 0 0 0 0 0 0 0
0 0 0 0 0 0 0 0 0 0 0 0 0 2 2 1 2 1 2 2 1 1 1 2 1 1 0 1 0 0 0 0 0 0 0 0 0 0 0 0 0 0 0 0
0 0 0 0 0 0 0 0 0 0 0 0 0 0 1 1 1 1 1 1 1 1 1 2 1 1 1 0 0 0 0 0 0 0 0 0 0 0 0 0 0 0 0 0
0 0 0 0 0 0 0 0 0 0 0 1 1 0 0 0 0 0 0 1 1 0 0 0 0 0 0 1 0 0 0 0 0 0 0 0 0 0 0 0 0 2 2 2
CIN
0 0 0 0 0 0 0 0 0 0 0 0 0 0 0 0 0 0 0 0 0 0 0 -8 -1 0 0 -3 -17 -52 -165 -173 -3 0 0 0 0 0 0 0 0 0 0 0
0 0 0 0 0 0 0 -1 0 0 0 0 0 0 0 0 0 0 0 0 0 0 0 -28 -18 -17 -5 -5 -9 -61 -167 -74 -1 -1 -1 0 0 0 0 0 0 0 0 0
0 0 0 0 0 0 0 0 0 0 0 -1 0 0 0 0 0 0 0 0 0 0 0 0 -11 -2 -1 -3 -9 -69 -157 -1 -1 -2 -1 -1 -1 0 0 0 0 0 0 0
0 -2 0 0 0 0 0 0 -1 0 0 -2 0 -3 0 0 0 0 0 0 0 0 0 0 -3 -1 -1 -3 -4 -47 -126 -163 -40 -1 0 0 0 0 0 0 0 0 0 0
0 0 0 0 0 0 0 0 0 0 0 0 0 -1 0 0 0 0 0 0 0 0 0 0 -3 -2 -2 0 -2 -47 -103 -108 -1 -1 0 0 0 -1 0 0 0 0 0 0
0 0 0 0 0 0 0 0 -1 -1 0 0 0 0 0 0 0 0 0 0 0 0 0 0 -17 -6 -6 0 -1 -21 -83 0 -1 -1 0 0 0 0 0 0 0 0 0 0
0 0 0 0 0 0 0 0 0 0 0 0 0 0 0 0 0 0 0 0 0 0 0 0 0 -16 -15 -1 -1 -17 -48 -13 0 0 0 0 0 0 0 0 0 0 0 0
0 0 0 0 0 0 0 0 -1 -1 0 0 0 0 0 0 0 0 0 0 0 -86 0 0 0 -69 -46 -30 -3 -6 -17 -23 0 0 0 0 0 0 0 0 0 0 0 0
0 0 0 0 0 0 0 -1 0 -1 0 0 0 0 -11 0 0 0 0 0 0 -127 -155 0 0 0 -82 -59 -24 -20 -25 -26 0 0 0 0 0 0 0 0 0 0 0 0
0 0 0 0 0 0 -1 0 -1 0 0 0 -2 0 0 0 0 0 0 0 0 0 -84 0 0 0 -105 -64 -47 -45 -26 -42 -12 0 0 0 0 0 0 0 0 0 0 0
0 0 0 0 0 0 -1 -1 -3 0 0 0 0 0 0 0 0 0 0 0 0 0 0 0 0 0 -23 -60 -38 -28 -18 -16 -31 0 0 0 0 0 0 0 0 0 0 0
0 0 0 0 0 0 0 0 0 0 0 -1 0 0 0 0 0 0 0 0 0 0 0 0 0 0 -123 -38 -25 -24 -27 -29 0 0 0 0 0 0 0 0 0 0 0 0
-1 0 0 0 0 0 0 0 0 0 0 0 0 0 0 0 0 0 0 0 0 0 0 0 0 0 -89 -38 -36 -32 -41 -43 0 0 0 0 0 0 0 0 0 0 0 0
0 0 0 0 0 0 0 0 0 0 0 0 0 0 0 0 0 0 0 0 0 0 0 0 0 0 -11 -34 -31 -18 -16 -67 0 0 0 0 0 0 0 0 0 0 0 0
0 0 0 0 0 0 0 0 0 -1 0 0 -1 0 0 0 0 0 0 0 0 0 0 0 0 0 0 -5 -4 -14 -14 -89 0 0 0 0 0 0 0 0 0 0 0 0
0 0 0 0 -1 0 0 0 0 0 0 0 0 0 0 0 0 0 0 0 0 0 0 0 0 0 0 0 0 -8 -17 -63 0 -1 0 0 0 0 0 0 0 0 0 0
0 0 0 0 0 0 0 0 0 -1 0 0 0 0 0 0 0 0 0 0 0 0 0 0 0 0 0 0 0 0 -38 -7 0 -1 0 0 0 0 0 0 0 0 0 0
0 0 0 0 0 0 0 0 0 0 0 0 0 0 -1 -1 0 0 0 0 0 0 0 0 0 0 0 0 0 0 -18 -83 0 0 0 0 0 0 0 0 0 0 0 0
0 0 0 0 0 0 0 0 0 0 0 0 0 0 0 0 0 0 0 0 0 0 0 0 0 0 0 0 0 0 -30 -123 -1 0 0 0 0 0 0 0 0 0 0 0
0 0 0 0 0 0 0 0 0 0 0 0 0 0 0 0 0 0 0 0 0 0 0 0 0 0 0 0 0 0 -30 -134 -30 0 0 0 0 0 0 0 0 0 0 0
0 0 0 0 0 0 0 0 0 0 0 0 0 0 0 0 0 0 0 0 0 0 0 0 0 0 0 0 0 0 0 -29 0 0 0 0 0 0 0 0 0 0 0 0
0 0 0 0 0 0 0 0 0 0 0 0 0 0 0 0 0 0 0 0 0 0 0 0 0 0 0 0 0 0 0 0 0 0 0 0 0 0 0 0 0 0 0 0
0 0 0 0 0 0 0 0 0 0 0 0 0 0 0 0 0 0 0 0 0 0 0 0 0 0 0 0 0 0 0 0 0 0 0 0 0 0 0 0 0 0 0 0
0 0 0 0 0 0 0 0 0 0 0 0 0 0 0 0 0 0 0 0 0 0 0 0 0 0 0 0 0 0 0 0 0 0 0 0 0 0 0 0 0 0 0 0
0 0 0 0 0 0 0 0 0 0 0 0 0 0 0 0 0 0 0 0 0 0 0 0 0 0 0 0 0 0 0 0 0 0 0 0 0 0 0 0 0 0 0 0
0 0 0 0 0 0 0 0 0 0 0 0 0 0 0 0 0 0 0 0 0 0 0 0 0 0 0 0 0 0 0 0 0 0 0 0 0 0 0 0 0 0 0 0
Wind_Speed
3 4 6 3 6 11 11 12 14 20 23 18 22 23 21 17 20 21 16 15 18 19 16 13 17 18 21 20 19 21 19 17 13 12 12 12 13 11 10 10 15 15 13 14
5 10 6 10 14 18 18 15 18 18 20 14 17 23 21 16 18 18 19 16 11 11 15 11 16 15 19 20 20 20 20 19 15 13 11 10 12 8 9 9 12 14 15 14
7 13 13 17 20 19 18 12 14 18 21 14 18 20 19 23 17 17 19 19 16 12 15 17 14 18 20 19 19 20 21 21 17 16 11 9 8 8 6 8 9 12 15 14
6 9 20 20 20 14 12 10 16 16 15 7 8 9 11 13 18 18 19 21 20 17 15 15 18 19 19 20 17 21 20 20 18 18 15 19 12 14 9 12 10 11 14 14
20 18 21 20 10 12 18 20 20 21 18 15 17 8 7 16 16 19 19 20 21 18 15 14 17 20 18 18 18 18 20 19 19 19 17 15 14 9 9 9 13 13 10 14
15 15 6 5 13 17 14 15 21 16 10 11 23 11 9 16 16 10 16 18 19 18 16 16 16 17 18 16 18 19 21 19 19 19 19 19 18 14 13 12 12 10 10 10
15 8 5 1 16 10 9 12 5 6 2 8 4 10 17 10 20 18 12 15 17 20 15 15 15 16 18 18 20 18 21 20 20 19 18 18 18 17 19 17 14 15 11 11
8 15 7 10 6 9 16 6 7 7 5 12 10 9 1 14 20 18 21 10 12 16 13 16 15 16 16 21 21 20 20 19 20 20 19 17 18 12 12 15 13 11 11 11
7 8 12 9 13 2 7 10 14 7 10 7 6 4 6 23 19 13 12 11 8 13 15 17 19 18 16 15 21 22 21 20 20 19 17 17 16 15 14 16 13 11 11 10
4 10 7 13 5 1 9 9 9 3 5 7 7 6 10 25 24 21 15 12 14 12 12 14 15 14 15 16 17 18 20 21 21 20 17 15 16 15 14 14 15 14 12 14
5 3 11 8 4 12 9 9 5 5 5 4 7 5 14 22 22 21 19 12 13 11 11 11 14 15 16 14 15 17 17 18 18 17 16 16 15 15 15 15 15 15 15 14
3 2 6 13 6 7 13 13 13 2 4 4 5 2 20 24 25 25 4 7 3 1 4 10 14 15 14 16 16 17 16 16 17 15 16 15 14 14 15 14 15 14 15 15
7 2 8 8 1 2 7 21 14 13 4 5 6 9 20 26 29 27 19 13 12 10 9 8 6 14 14 14 16 16 16 16 15 15 16 15 15 14 14 14 14 15 14 14
7 4 5 6 13 9 13 25 19 15 4 12 4 20 24 33 28 30 24 16 15 16 15 13 12 9 4 11 15 16 17 17 17 16 16 16 17 16 15 15 15 15 15 15
3 4 11 16 10 6 15 22 19 14 15 9 20 17 18 26 23 24 17 17 19 19 18 15 13 10 10 6 11 16 17 17 17 18 17 17 15 15 14 14 15 14 15 15
3 6 13 3 4 4 8 19 17 11 15 15 19 14 22 20 20 21 18 18 19 17 17 16 14 14 12 10 8 13 16 16 17 16 16 15 15 15 14 14 14 14 13 13
4 5 5 5 9 6 4 17 18 14 9 19 20 21 23 24 19 14 18 19 17 17 18 16 15 12 11 9 7 4 14 17 17 16 16 16 16 15 14 14 14 14 14 15
6 7 4 6 8 4 5 14 11 16 7 24 24 27 27 28 21 11 20 20 20 18 17 15 12 12 11 10 6 5 6 16 15 14 14 15 15 15 15 14 14 14 12 14
5 3 5 4 4 0 6 24 19 12 7 25 27 27 26 26 16 8 24 20 17 16 15 12 11 10 10 10 9 5 4 11 13 14 15 15 15 15 15 15 14 13 13 12
7 3 1 4 4 6 10 19 25 8 2 25 23 23 24 21 15 14 23 20 19 18 15 15 15 13 12 13 11 2 6 11 12 13 13 14 15 15 15 14 14 11 12 11
7 5 4 6 3 4 14 15 18 9 11 24 20 20 17 14 11 14 17 18 16 15 16 14 12 12 13 14 11 9 6 7 7 10 12 12 12 14 13 12 11 11 12 12
1 4 4 5 4 4 17 8 8 9 13 19 19 19 18 17 15 16 17 17 18 19 19 18 14 13 13 14 12 10 9 7 3 13 12 9 10 10 11 14 10 12 13 13
4 3 3 2 3 8 14 8 9 14 16 16 19 18 16 16 16 16 15 15 15 15 14 13 12 12 13 13 12 10 9 8 3 11 11 11 11 10 12 15 13 11 11 11
3 1 2 6 2 10 14 4 14 16 17 19 15 14 14 14 13 13 13 14 14 13 14 13 12 13 13 13 11 10 9 7 7 11 11 10 13 12 10 8 9 10 10 10
3 4 4 6 5 14 1 15 14 19 20 16 14 11 11 11 11 11 10 12 11 11 12 10 11 11 12 11 11 10 9 5 11 10 10 11 9 11 11 8 7 7 5 10
1 2 1 5 8 7 15 15 23 19 16 13 10 11 10 9 10 11 9 10 10 10 11 10 11 11 11 10 10 10 10 8 7 10 8 8 9 8 9 10 10 17 15 16
Wind_Direction
325 328 313 282 291 279 283 282 271 277 283 276 274 277 279 282 282 286 302 224 217 222 223 193 182 179 175 174 178 174 158 171 157 153 154 154 158 156 156 156 156 151 153 149
318 292 281 298 299 307 300 286 276 285 276 292 277 270 282 277 272 253 270 284 289 218 214 207 188 179 176 172 179 172 161 163 162 163 162 163 154 153 144 143 152 151 153 154
282 282 298 303 314 307 293 277 268 268 288 296 277 275 272 269 262 260 234 257 267 274 226 213 197 185 178 174 174 175 162 163 164 157 146 132 119 109 126 144 154 166 161 159
281 283 301 308 301 304 297 279 283 287 303 291 339 294 271 255 248 242 232 227 246 252 241 213 201 195 184 177 174 170 162 164 162 156 154 153 154 162 179 173 162 159 161 158
298 307 308 301 293 337 290 286 285 285 275 281 267 258 265 245 269 237 230 222 226 229 223 210 201 194 185 171 171 164 158 166 164 161 160 161 163 170 146 155 150 156 159 162
295 295 271 250 309 309 304 290 282 268 253 261 252 208 242 230 232 231 215 213 212 217 205 204 196 193 185 174 162 164 162 168 165 168 162 167 163 156 154 157 160 166 162 165
331 303 307 282 337 297 318 309 320 350 199 241 251 193 233 220 224 246 240 214 203 226 201 190 188 190 173 173 167 163 166 169 165 168 167 171 165 164 169 168 168 166 166 172
333 327 354 330 326 299 308 328 308 303 302 291 266 224 305 243 238 230 235 228 217 221 197 183 182 189 182 175 171 166 169 166 168 170 173 175 169 168 168 173 172 175 176 173
317 284 328 298 327 16 319 347 298 277 265 254 251 352 59 355 360 319 340 307 215 201 183 189 187 190 184 178 178 172 175 171 169 173 173 175 172 164 168 173 172 171 168 164
270 289 288 325 10 97 290 334 324 334 300 310 315 78 18 353 337 324 315 280 233 216 199 176 180 183 183 178 174 172 176 175 170 170 174 174 174 169 162 162 169 167 163 157
254 182 290 311 4 349 344 339 338 263 262 297 310 89 12 344 326 312 294 242 237 208 183 182 180 182 178 177 177 174 170 172 168 170 172 170 173 169 164 166 169 164 155 156
251 240 282 296 326 84 44 348 340 288 333 325 272 323 7 342 337 336 36 91 98 120 150 186 172 169 173 176 176 175 170 169 168 169 170 170 165 165 166 167 166 158 160 159
340 290 308 330 115 38 6 9 346 345 304 10 344 313 334 335 358 355 5 42 64 71 81 81 119 165 167 174 170 170 171 169 163 162 170 166 165 163 167 162 159 158 154 155
356 269 246 271 286 315 10 8 0 6 357 323 4 316 335 347 347 354 1 13 50 52 56 62 56 56 124 174 169 165 168 166 159 162 169 170 164 165 163 157 154 156 158 154
79 275 312 300 286 133 49 12 352 14 359 19 324 328 341 337 343 349 349 356 38 36 39 36 44 46 49 85 181 173 166 165 161 169 168 173 167 161 156 155 156 155 156 160
335 286 322 281 309 46 62 14 358 349 8 9 352 341 338 336 343 356 350 360 25 27 30 29 32 36 37 38 38 181 175 166 164 168 166 162 161 159 157 154 152 153 154 152
312 320 324 279 333 330 17 13 347 340 18 18 7 330 329 345 340 17 348 10 15 16 18 15 15 19 20 17 11 58 173 169 172 163 158 158 157 154 155 153 153 155 160 155
292 319 280 296 314 53 163 4 340 328 24 11 348 347 345 342 336 22 1 5 3 8 7 5 6 4 4 3 1 326 185 169 161 154 156 155 154 153 151 153 156 151 156 158
226 307 311 325 313 289 12 350 349 339 316 20 345 339 338 340 325 351 1 0 360 358 358 356 359 4 0 360 343 323 165 156 154 152 154 154 154 151 155 156 156 153 155 152
344 334 81 330 332 5 1 335 333 308 248 2 337 334 332 338 4 352 344 351 353 359 357 360 2 360 7 360 342 247 146 152 154 158 155 155 150 153 157 155 154 153 149 143
338 351 12 345 343 92 358 342 325 42 309 322 325 325 329 346 340 320 339 347 351 352 359 3 12 20 3 357 4 26 81 105 139 140 143 147 147 148 146 139 138 137 134 132
273 348 341 334 2 13 12 335 31 302 304 318 319 323 337 338 337 347 350 350 351 355 359 5 6 8 9 9 13 22 29 336 307 139 137 128 130 132 131 129 129 130 132 131
0 164 237 270 299 351 331 287 299 331 323 323 320 322 333 333 343 348 348 351 351 358 358 357 2 2 11 11 14 18 358 349 41 115 120 119 115 122 133 134 132 129 132 141
340 4 239 338 46 316 313 300 342 331 323 314 310 328 328 333 341 349 354 356 354 357 360 357 1 8 11 5 11 7 2 10 62 106 109 114 121 117 118 122 132 139 141 145
222 2 318 270 301 317 246 326 321 322 318 315 329 334 334 338 346 345 352 1 0 360 358 1 5 5 8 4 4 9 16 28 75 84 100 105 109 114 113 105 124 136 137 154
187 208 135 266 310 282 282 302 312 312 305 324 335 343 342 340 348 352 355 358 1 0 359 3 9 8 2 11 15 11 14 23 84 92 87 104 107 102 108 111 105 95 104 119